Romeoville, IL

10:31 AM CDT on June 28, 2017 (GMT -0500)
Lewis University

Weather History for KLOT - December, 2013

Change the Weather History Date:

Monday, December 23, 2013

  Actual Average Record
Temperature  
Mean Temperature 13 °F 25 °F  
Max Temperature 26 °F 32 °F 59 °F (2015)
Min Temperature -1 °F 18 °F -8 °F (2000)
Degree Days  
Heating Degree Days 52 40  
Month to date heating degree days 962 829  
Since 1 July heating degree days 2284 2048  
Cooling Degree Days 0 0  
Month to date cooling degree days 0 0  
Year to date cooling degree days 950 862  
Moisture  
Dew Point 7 °F    
Average Humidity 84    
Maximum Humidity 100    
Minimum Humidity 72    
Precipitation  
Precipitation T in 0.07 in 0.74 in (1996)
Month to date precipitation 1.21 1.67  
Year to date precipitation 40.56 39.49  
Snow  
Snow T in 0.40 in 4.50 in (2008)
Month to date snowfall 9.1 6.6  
Since 1 July snowfall 10.0 7.5  
Snow Depth 0.00 in    
Sea Level Pressure  
Sea Level Pressure 30.34 in    
Wind  
Wind Speed 14 mph (West)    
Max Wind Speed 21 mph    
Max Gust Speed 26 mph    
Visibility 9 miles    
Events Snow    
T = Trace of Precipitation, MM = Missing Value Source: NWS Daily Summary

Daily Weather History Graph

Daily Weather History Graph

Search for Another Location

Airport or City:

Trip Planner

Search our weather history database for the weather conditions in past years. The results will help you decide how hot, cold, wet, or windy it might be!

Date:

Astronomy

Dec. 23, 2013 Rise Set
Actual Time 7:16 AM CST 4:26 PM CST
Civil Twilight 6:45 AM CST 4:58 PM CST
Nautical Twilight 6:10 AM CST 5:33 PM CST
Astronomical Twilight 5:36 AM CST 6:06 PM CST
Moon 10:40 PM CST (12/23) 10:37 AM CST (12/23)
Length of Visible Light 10h 12m
Length of Day
9h 09m
Waning Gibbous, 68% of the Moon is Illuminated
Dec 23
Waning Gibbous
Dec 25
Last Quarter
Jan 1
New
Jan 7
First Quarter
Jan 15
Full

Hourly Weather History & Observations

Time (CST) Temp. Windchill Dew Point Humidity Pressure Visibility Wind Dir Wind Speed Gust Speed Precip Events Conditions
12:15 AM 26.2 °F 15.8 °F 25.9 °F 99% 30.12 in 10.0 mi West 11.5 mph - N/A   Overcast
12:35 AM 25.7 °F 15.1 °F 25.5 °F 99% 30.13 in 7.0 mi West 11.5 mph - N/A Snow Light Snow
12:55 AM 24.8 °F 12.9 °F 24.8 °F 100% 30.14 in 7.0 mi West 13.8 mph - N/A Snow Light Snow
1:15 AM 24.4 °F 13.5 °F 24.3 °F 99% 30.14 in 7.0 mi West 11.5 mph - N/A Snow Light Snow
1:35 AM 23.7 °F 12.6 °F 23.5 °F 99% 30.16 in 7.0 mi West 11.5 mph - N/A Snow Light Snow
1:55 AM 23.5 °F 11.8 °F 23.2 °F 99% 30.16 in 5.0 mi West 12.7 mph - N/A Snow Light Snow
2:15 AM 23.0 °F 11.7 °F 22.8 °F 99% 30.17 in 5.0 mi West 11.5 mph - N/A Snow Light Snow
2:35 AM 22.5 °F 8.9 °F 22.1 °F 99% 30.18 in 5.0 mi West 16.1 mph - N/A Snow Light Snow
2:55 AM 21.7 °F 9.6 °F 21.2 °F 98% 30.19 in 5.0 mi West 12.7 mph - N/A Snow Light Snow
3:15 AM 21.7 °F 9.6 °F 21.2 °F 98% 30.19 in 7.0 mi West 12.7 mph - N/A Snow Light Snow
3:35 AM 21.6 °F 9.9 °F 21.2 °F 99% 30.19 in 7.0 mi West 11.5 mph - N/A   Overcast
3:55 AM 21.2 °F 8.9 °F 20.7 °F 98% 30.20 in 7.0 mi West 12.7 mph - N/A   Overcast
4:15 AM 21.0 °F 8.6 °F 20.5 °F 98% 30.20 in 10.0 mi West 12.7 mph - N/A   Overcast
4:35 AM 20.5 °F 6.9 °F 19.9 °F 98% 30.21 in 10.0 mi West 15.0 mph - N/A   Overcast
4:55 AM 19.9 °F 6.7 °F 19.4 °F 98% 30.23 in 10.0 mi West 13.8 mph - N/A   Overcast
5:15 AM 19.4 °F 5.5 °F 19.0 °F 98% 30.24 in 10.0 mi West 15.0 mph - N/A   Overcast
5:35 AM 19.2 °F 6.4 °F 18.9 °F 98% 30.24 in 10.0 mi West 12.7 mph 18.4 mph N/A   Overcast
5:55 AM 18.5 °F 5.5 °F 18.1 °F 98% 30.25 in 10.0 mi West 12.7 mph - N/A   Overcast
6:15 AM 18.1 °F 3.9 °F 17.6 °F 98% 30.27 in 10.0 mi West 15.0 mph 19.6 mph N/A   Overcast
6:35 AM 17.6 °F 4.3 °F 17.2 °F 98% 30.28 in 7.0 mi West 12.7 mph - N/A   Overcast
6:55 AM 16.7 °F 1.5 °F 16.2 °F 98% 30.29 in 10.0 mi West 16.1 mph - N/A   Overcast
7:15 AM 15.8 °F 3.4 °F 15.3 °F 98% 30.30 in 10.0 mi West 10.4 mph - N/A   Overcast
7:35 AM 15.3 °F 1.4 °F 14.7 °F 98% 30.30 in 7.0 mi West 12.7 mph - N/A   Overcast
7:55 AM 15.1 °F -0.1 °F 14.5 °F 98% 30.31 in 7.0 mi West 15.0 mph - N/A   Overcast
8:15 AM 14.7 °F 0.1 °F 14.2 °F 98% 30.32 in 5.0 mi WSW 13.8 mph - N/A Snow Light Snow
8:35 AM 13.5 °F -3.2 °F 12.4 °F 95% 30.33 in 5.0 mi West 17.3 mph - N/A Snow Light Snow
8:55 AM 11.5 °F -4.7 °F 9.9 °F 93% 30.34 in 7.0 mi West 15.0 mph - N/A   Overcast
9:15 AM 10.6 °F -6.4 °F 8.1 °F 90% 30.35 in 10.0 mi West 16.1 mph - N/A   Scattered Clouds
9:35 AM 10.2 °F -6.9 °F 6.1 °F 83% 30.36 in 10.0 mi West 16.1 mph 21.9 mph N/A   Scattered Clouds
9:55 AM 9.9 °F -5.5 °F 4.5 °F 79% 30.37 in 10.0 mi West 12.7 mph - N/A   Scattered Clouds
10:15 AM 10.8 °F -5.6 °F 5.2 °F 78% 30.36 in 10.0 mi WSW 15.0 mph - N/A   Clear
10:35 AM 11.1 °F -4.5 °F 5.5 °F 78% 30.37 in 10.0 mi West 13.8 mph - N/A   Scattered Clouds
10:55 AM 10.4 °F -5.4 °F 5.0 °F 79% 30.37 in 10.0 mi WSW 13.8 mph - N/A   Scattered Clouds
11:15 AM 10.8 °F -5.6 °F 5.2 °F 78% 30.37 in 10.0 mi West 15.0 mph - N/A   Clear
11:35 AM 10.8 °F -6.2 °F 5.4 °F 79% 30.36 in 10.0 mi WSW 16.1 mph - N/A   Clear
11:55 AM 10.4 °F -6.6 °F 5.4 °F 80% 30.36 in 7.0 mi West 16.1 mph - N/A   Scattered Clouds
12:15 PM 10.4 °F -4.8 °F 4.6 °F 78% 30.36 in 10.0 mi WSW 12.7 mph - N/A   Scattered Clouds
12:35 PM 10.9 °F -4.7 °F 5.4 °F 78% 30.36 in 10.0 mi West 13.8 mph 19.6 mph N/A   Scattered Clouds
12:55 PM 9.9 °F -7.3 °F 4.1 °F 78% 30.36 in 10.0 mi West 16.1 mph - N/A   Scattered Clouds
1:15 PM 9.7 °F -9.6 °F 3.4 °F 76% 30.36 in 10.0 mi West 20.7 mph - N/A   Scattered Clouds
1:35 PM 9.7 °F -8.1 °F 3.7 °F 77% 30.36 in 10.0 mi West 17.3 mph - N/A   Scattered Clouds
1:55 PM 9.5 °F -8.8 °F 3.2 °F 76% 30.37 in 10.0 mi West 18.4 mph - N/A   Scattered Clouds
2:15 PM 9.0 °F -7.9 °F 2.5 °F 75% 30.37 in 10.0 mi West 15.0 mph 19.6 mph N/A   Clear
2:35 PM 9.1 °F -8.2 °F 2.3 °F 74% 30.37 in 10.0 mi West 16.1 mph - N/A   Clear
2:55 PM 9.3 °F -6.1 °F 2.7 °F 74% 30.37 in 10.0 mi West 12.7 mph - N/A   Clear
3:15 PM 8.2 °F -10.5 °F 1.2 °F 73% 30.38 in 10.0 mi West 18.4 mph - N/A   Clear
3:35 PM 7.5 °F -10.9 °F 0.3 °F 72% 30.39 in 10.0 mi West 17.3 mph 20.7 mph N/A   Clear
3:55 PM 7.3 °F -10.0 °F 1.0 °F 75% 30.41 in 10.0 mi West 15.0 mph 21.9 mph N/A   Scattered Clouds
4:15 PM 6.4 °F -11.7 °F 0.1 °F 75% 30.41 in 10.0 mi West 16.1 mph 21.9 mph N/A   Scattered Clouds
4:35 PM 5.7 °F -13.2 °F -0.4 °F 76% 30.41 in 10.0 mi West 17.3 mph - N/A   Clear
4:55 PM 5.2 °F -15.0 °F -1.3 °F 75% 30.41 in 10.0 mi West 19.6 mph - N/A   Clear
5:15 PM 4.8 °F -16.0 °F -2.0 °F 73% 30.42 in 10.0 mi West 20.7 mph 25.3 mph N/A   Clear
5:35 PM 4.1 °F -16.9 °F -2.6 °F 74% 30.42 in 10.0 mi West 20.7 mph 26.5 mph N/A   Clear
5:55 PM 4.1 °F -15.3 °F -2.2 °F 75% 30.44 in 10.0 mi WNW 17.3 mph 20.7 mph N/A   Clear
6:15 PM 3.7 °F -15.8 °F -2.9 °F 74% 30.45 in 10.0 mi West 17.3 mph - N/A   Clear
6:35 PM 3.2 °F -15.3 °F -3.5 °F 74% 30.45 in 10.0 mi West 15.0 mph - N/A   Clear
6:55 PM 2.7 °F -17.2 °F -4.0 °F 74% 30.46 in 10.0 mi WNW 17.3 mph - N/A   Scattered Clouds
7:15 PM 2.3 °F -17.1 °F -4.2 °F 74% 30.46 in 10.0 mi WNW 16.1 mph 21.9 mph N/A   Scattered Clouds
7:35 PM 2.1 °F -16.0 °F -4.2 °F 75% 30.46 in 10.0 mi WNW 13.8 mph - N/A   Clear
7:55 PM 1.6 °F -19.7 °F -5.1 °F 74% 30.47 in 10.0 mi West 19.6 mph 23.0 mph N/A   Scattered Clouds
8:15 PM 1.0 °F -20.4 °F -5.8 °F 73% 30.47 in 10.0 mi West 19.6 mph - N/A   Scattered Clouds
8:35 PM 0.7 °F -19.1 °F -6.0 °F 74% 30.47 in 10.0 mi WNW 16.1 mph 20.7 mph N/A   Clear
8:55 PM 0.3 °F -20.2 °F -6.3 °F 74% 30.46 in 10.0 mi West 17.3 mph - N/A   Clear
9:15 PM 0.3 °F -19.0 °F -6.5 °F 73% 30.46 in 10.0 mi West 15.0 mph 20.7 mph N/A   Clear
9:35 PM 0.1 °F -16.9 °F -6.3 °F 74% 30.46 in 10.0 mi WNW 11.5 mph - N/A   Clear
9:55 PM -0.0 °F -20.7 °F -6.7 °F 73% 30.46 in 10.0 mi WNW 17.3 mph - N/A   Clear
10:15 PM -0.4 °F -18.4 °F -6.7 °F 75% 30.46 in 10.0 mi WNW 12.7 mph 16.1 mph N/A   Clear
10:35 PM -0.4 °F -19.9 °F -6.7 °F 75% 30.46 in 10.0 mi West 15.0 mph - N/A   Clear
10:55 PM -0.4 °F -18.4 °F -6.7 °F 75% 30.46 in 10.0 mi WNW 12.7 mph - N/A   Clear
11:15 PM -0.4 °F -19.2 °F -6.9 °F 74% 30.45 in 10.0 mi WNW 13.8 mph - N/A   Clear
11:35 PM -0.4 °F -20.5 °F -6.7 °F 75% 30.45 in 10.0 mi West 16.1 mph - N/A   Clear
11:55 PM -0.8 °F -18.0 °F -7.1 °F 75% 30.46 in 10.0 mi WNW 11.5 mph - N/A   Clear